Weather in Etrek

Turkmenistan     37°39′46″N   54°46′07″E
В апреле 2022 года жителям России запретили посещать сайт meteo.paraplan.net по решению Генеральной прокуратуры. Аудитория сайта уменьшилась в 10 раз. Владельцы сайта не видят смысла в поддержке погодного сервера в таких условиях. Сайт будет закрыт в октябре.
temp.,
°C
wind,
m/s
gust,
m/s
humid.,
%
clouds,
%
prec.,
mm/h
press.,
hPa
HPBL,
m
30 september, fri
fri3023:00+24wnw34540 0.0 101091
02:00+22w22740 0.0 101251
05:00+21sw34860 0.0 101480
08:00+22ssw248942 0.0 1016141
11:00+25sw346999 0.1 1016738
14:00+28w555439 0.0 10161340
17:00+29w76508 0.0 10151354
20:00+25wsw56601 0.0 1017380
1 october, sat
sat123:00+23wsw347048 0.0 1018365
02:00+23w237180 0.0 1018307
05:00+23wsw2371100 0.0 1018329
08:00+23w2372100 0.0 1019303
11:00+24w226393 0.0 1020724
14:00+26nw124976 0.0 10181149
17:00+28n124266 0.0 10171568
20:00+27w4444100 0.0 1017328
2 october, sun
sun223:00+24wnw565944 0.0 1018333
02:00+22nnw22430 0.0 101793
05:00+20n22270 0.0 101824
08:00+19n23220 0.0 101945
11:00+24nw22220 0.0 1019464
14:00+27nw33200 0.0 10171153
17:00+28nnw23170 0.0 10151648
20:00+24ne610190 0.0 1015174
3 october, mon
mon323:00+20ne69170 0.0 1014146
02:00+19ne46194 0.0 101362
05:00+18ene44250 0.0 101230
08:00+18ene44370 0.0 101250
11:00+25e33335 0.0 1012503
14:00+30ne33185 0.0 10091116
17:00+31nne44122 0.0 10081199
20:00+26ne56145 0.0 100960
4 october, tue
tue423:00+22ne57145 0.0 101073
02:00+21ne44155 0.0 101041
05:00+20ne44165 0.0 101039
08:00+20ne33175 0.0 101234
11:00+27w01125 0.0 1014364
14:00+31wnw22105 0.0 1014845
17:00+33nw22105 0.0 10131227
20:00+27wnw34135 0.0 101525